[[{"header":{"parameterUnit":"m.s-1","parameterCategory":1,"la1":30.2991,"la2":30.254,"lo1":-89.0895,"lo2":-89.0444,"dy":0.0017,"dx":0.0017,"nx":28,"ny":28,"refTime":"2024-05-06T21:00:00:Z","depth":0,"parameterNumber":2,"parameterNumberName":"U-component_of_WINDS"},"data":[0,0,0,0,0,0,0,0,0,0,0,0,0,0,0,0,0,0,0,0,0,0,0,0,0,0,0,0,0,0,0,0,0,0,0,0,0,0,0,0,0,0,0,0,0,0,0,0,0,0,0,0,0,0,0,0,0,0,-0.4648,-0.4647,0,-0.4608,-0.4607,-0.4607,-0.4592,-0.4592,-0.4593,-0.4593,-0.4552,-0.455,-0.4549,0,0,0,0,0,0,0,0,0,0,0,0,0,-0.4712,-0.4711,-0.4648,-0.4647,-0.4647,-0.4608,-0.4607,-0.4607,-0.4592,-0.4592,-0.4593,-0.4593,-0.4552,-0.4551,-0.4549,0,0,0,0,0,0,0,0,0,0,0,0,0,-0.4679,-0.4711,-0.4648,-0.4635,-0.4633,-0.4608,-0.4607,-0.4607,-0.4592,-0.4592,-0.4593,-0.4593,-0.4552,-0.4551,-0.4549,-0.4534,0,0,-0.4543,-0.4542,0,0,0,0,0,0,0,0,-0.4681,-0.4677,-0.4637,-0.4636,-0.4634,-0.4605,-0.4615,-0.4582,-0.4592,-0.4608,-0.4593,-0.4593,-0.4569,-0.4566,-0.4558,-0.4532,-0.453,-0.4543,-0.4542,-0.4541,-0.4541,0,0,0,0,0,0,0,-0.4684,-0.4679,-0.4632,-0.4637,-0.4635,-0.4631,-0.4627,-0.4609,-0.4588,-0.4606,-0.4605,-0.4601,-0.4568,-0.456,-0.4557,-0.4529,-0.4543,-0.4542,-0.454,-0.454,-0.4489,-0.4489,0,0,0,0,0,0,-0.4688,-0.4681,-0.4633,-0.4631,-0.4659,-0.463,-0.4625,-0.4614,-0.4588,-0.4584,-0.4601,-0.46,-0.4563,-0.4559,-0.4556,-0.4536,-0.4541,-0.4539,-0.4538,-0.449,-0.4489,-0.4489,0,0,0,0,0,0,-0.4689,-0.4684,-0.4635,-0.4655,-0.4649,-0.4629,-0.4617,-0.4613,-0.4605,-0.4584,-0.458,-0.4596,-0.4563,-0.4558,-0.4539,-0.4535,-0.4539,-0.4537,-0.449,-0.4489,-0.4489,-0.4498,0,0,0,0,0,0,-0.4691,-0.4684,-0.4678,-0.4655,-0.4648,-0.4619,-0.4616,-0.4612,-0.4602,-0.4601,-0.4578,-0.4574,-0.4563,-0.4542,-0.4538,-0.4532,-0.4536,-0.449,-0.449,-0.4489,-0.4498,-0.4498,-0.4498,0,0,0,0,0,-0.4694,-0.4682,-0.4678,-0.4672,-0.464,-0.4619,-0.4615,-0.4601,-0.4601,-0.4595,-0.4582,-0.4575,-0.4536,-0.454,-0.4535,-0.4529,-0.449,-0.449,-0.4489,-0.4498,-0.4498,-0.4498,0,0,0,0,0,0,-0.4704,-0.4679,-0.4674,-0.4654,-0.4639,-0.4616,-0.4608,-0.4602,-0.4586,-0.4585,-0.457,-0.4565,-0.4547,-0.4536,-0.4542,-0.4514,-0.4513,-0.4511,-0.4521,-0.4521,-0.4521,-0.4524,-0.4534,0,0,0,0,0,-0.4705,-0.469,-0.4668,-0.4653,-0.4646,-0.4628,-0.4619,-0.461,-0.4593,-0.4587,-0.4572,-0.4556,-0.454,-0.453,-0.4514,-0.4496,-0.4492,-0.449,-0.449,-0.449,-0.4489,-0.4479,-0.4478,-0.4487,-0.4487,-0.4487,0,0,-0.4705,-0.4689,-0.468,-0.4655,-0.4642,-0.4627,-0.4623,-0.4607,-0.4596,-0.4584,-0.4566,-0.4555,-0.4536,-0.4518,-0.4509,-0.4508,-0.4485,-0.4489,-0.449,-0.4488,-0.4479,-0.4478,-0.4477,-0.4487,-0.4487,-0.4487,0,0,-0.4697,-0.4684,-0.467,-0.4657,-0.4638,-0.4627,-0.4623,-0.4602,-0.4594,-0.4576,-0.4566,-0.4553,-0.4526,-0.4514,-0.4504,-0.4493,-0.4487,-0.4488,-0.4488,-0.4479,-0.4478,-0.4478,-0.4474,-0.4473,-0.4487,-0.4487,-0.4487,0,-0.47,-0.4677,-0.4664,-0.4649,-0.4638,-0.4627,-0.4614,-0.4602,-0.4578,-0.4572,-0.4571,-0.4538,-0.4524,-0.4503,-0.4501,-0.4493,-0.4489,-0.4491,-0.448,-0.4479,-0.4478,-0.4475,-0.4473,-0.4488,-0.4488,-0.4488,-0.4487,0,-0.4682,-0.4666,-0.4658,-0.4636,-0.4624,-0.461,-0.4595,-0.4585,-0.4577,-0.4566,-0.4548,-0.4532,-0.4513,-0.4507,-0.45,-0.4486,-0.4486,-0.4483,-0.4482,-0.4478,-0.4474,-0.4473,-0.4488,-0.4488,-0.4488,-0.4488,0,0,-0.4679,-0.4651,-0.4648,-0.4638,-0.4616,-0.4604,-0.459,-0.4572,-0.4564,-0.4548,-0.4536,-0.4514,-0.4512,-0.45,-0.4491,-0.4484,-0.4477,-0.4481,-0.4481,-0.4481,-0.4461,-0.4464,-0.4462,-0.4473,-0.4472,-0.4472,-0.4463,0,-0.4669,-0.4643,-0.4631,-0.4611,-0.4597,-0.4587,-0.4574,-0.456,-0.455,-0.4536,-0.4525,-0.451,-0.4507,-0.45,-0.4492,-0.448,-0.4473,-0.448,-0.4462,-0.4461,-0.4467,-0.4461,-0.4463,-0.4455,-0.4461,-0.4461,-0.4461,0,-0.4654,-0.4639,-0.4617,-0.4598,-0.4592,-0.4581,-0.4564,-0.4551,-0.4535,-0.4528,-0.4516,-0.4508,-0.4493,-0.4493,-0.4473,-0.4478,-0.447,-0.4463,-0.4462,-0.446,-0.4461,-0.4458,-0.4452,-0.4451,-0.4459,-0.4459,-0.4459,0,-0.4655,-0.4629,-0.4613,-0.4605,-0.4582,-0.4575,-0.4565,-0.4549,-0.4539,-0.4524,-0.4518,-0.4502,-0.4493,-0.448,-0.4468,-0.4469,-0.4449,-0.4448,-0.4443,-0.4443,-0.4439,-0.4439,-0.4431,-0.4434,-0.4434,-0.4434,-0.4434,0,-0.4645,-0.4632,-0.4613,-0.4603,-0.4589,-0.4575,-0.4562,-0.4551,-0.4537,-0.4525,-0.4516,-0.4505,-0.4489,-0.4476,-0.4467,-0.4452,-0.4447,-0.4442,-0.4439,-0.4442,-0.4443,-0.4437,-0.4437,-0.4434,-0.4434,-0.4434,-0.4434,0,-0.4643,-0.463,-0.4612,-0.4592,-0.4587,-0.4577,-0.456,-0.4551,-0.454,-0.4525,-0.4521,-0.4505,-0.4489,-0.4476,-0.4455,-0.4449,-0.4434,-0.443,-0.4439,-0.4438,-0.4433,-0.4434,-0.4421,-0.4419,-0.4423,-0.4423,-0.4423,0,-0.4638,-0.4628,-0.4607,-0.4599,-0.4589,-0.4575,-0.4566,-0.4552,-0.4543,-0.4524,-0.4517,-0.4501,-0.4487,-0.4463,-0.445,-0.4434,-0.4431,-0.4427,-0.4428,-0.4432,-0.4431,-0.4432,-0.4431,-0.4427,-0.4427,-0.4427,-0.4427,0,-0.463,-0.4624,-0.461,-0.4594,-0.4583,-0.457,-0.4556,-0.455,-0.4534,-0.4524,-0.4508,-0.4498,-0.4478,-0.4462,-0.4445,-0.4435,-0.4429,-0.4427,-0.4425,-0.4428,-0.4434,-0.4431,-0.4439,-0.4427,-0.4427,-0.4427,-0.4427,-0.4427,-0.4626,-0.4617,-0.4601,-0.4587,-0.4575,-0.4563,-0.4553,-0.4542,-0.4529,-0.4511,-0.4504,-0.4489,-0.4474,-0.445,-0.4441,-0.4428,-0.4427,-0.4424,-0.4424,-0.4423,-0.4424,-0.4436,-0.4425,-0.4425,-0.4425,-0.4425,-0.4425,0,-0.4618,-0.4607,-0.4594,-0.4576,-0.4564,-0.456,-0.4545,-0.4536,-0.4522,-0.4508,-0.4496,-0.4478,-0.4463,-0.4449,-0.4433,-0.4426,-0.4423,-0.4423,-0.4423,-0.4421,-0.4425,-0.4429,-0.4426,-0.4426,-0.4426,-0.4426,-0.4426,-0.4426,-0.4612,-0.4597,-0.4589,-0.4568,-0.4558,-0.4543,-0.4535,-0.4524,-0.4513,-0.4494,-0.4482,-0.4473,-0.4459,-0.4443,-0.4429,-0.4425,-0.442,-0.442,-0.4416,-0.442,-0.442,-0.4421,-0.4424,-0.4419,-0.4419,-0.4412,-0.4412,-0.4412]},{"header":{"parameterUnit":"m.s-1","parameterCategory":1,"la1":30.2991,"la2":30.254,"lo1":-89.0895,"lo2":-89.0444,"dy":0.0017,"dx":0.0017,"nx":28,"ny":28,"refTime":"2024-05-06T21:00:00:Z","depth":0,"parameterNumber":3,"parameterNumberName":"V-component_of_WINDS"},"data":[0,0,0,0,0,0,0,0,0,0,0,0,0,0,0,0,0,0,0,0,0,0,0,0,0,0,0,0,0,0,0,0,0,0,0,0,0,0,0,0,0,0,0,0,0,0,0,0,0,0,0,0,0,0,0,0,0,0,5.9484,5.9486,0,5.9643,5.9645,5.9647,5.9635,5.9632,5.963,5.9628,5.9783,5.9789,5.9796,0,0,0,0,0,0,0,0,0,0,0,0,0,5.9163,5.9169,5.9484,5.9486,5.9488,5.9643,5.9645,5.9647,5.9635,5.9632,5.9629,5.9627,5.9781,5.9789,5.9796,0,0,0,0,0,0,0,0,0,0,0,0,0,5.931,5.917,5.9484,5.9501,5.9504,5.9643,5.9645,5.9648,5.9636,5.9632,5.9629,5.9625,5.9779,5.9788,5.9797,5.9927,0,0,5.9826,5.983,0,0,0,0,0,0,0,0,5.9301,5.9322,5.9496,5.95,5.9504,5.9616,5.9589,5.9741,5.9637,5.9585,5.9628,5.9624,5.973,5.9743,5.978,5.9934,5.9941,5.9827,5.9833,5.9837,5.984,0,0,0,0,0,0,0,5.9291,5.9315,5.9547,5.9499,5.9503,5.9498,5.9515,5.9618,5.9675,5.959,5.9589,5.9609,5.9731,5.9771,5.9784,5.9943,5.9827,5.9835,5.9841,5.9845,6.0211,6.0214,0,0,0,0,0,0,5.9278,5.9306,5.9542,5.9552,5.9392,5.9507,5.9526,5.9583,5.9674,5.9685,5.9611,5.9607,5.9757,5.9773,5.9789,5.9947,5.9837,5.9846,5.9851,6.0207,6.0212,6.0216,0,0,0,0,0,0,5.9271,5.9299,5.9535,5.9429,5.9459,5.9516,5.9581,5.9588,5.9629,5.9691,5.97,5.9643,5.9755,5.9776,5.9893,5.9953,5.985,5.9859,6.0202,6.0208,6.0214,6.0264,0,0,0,0,0,0,5.9262,5.9297,5.9348,5.943,5.9464,5.9639,5.9584,5.9594,5.9646,5.9642,5.9723,5.9732,5.9754,5.9879,5.9903,5.9964,5.9866,6.0197,6.0205,6.0212,6.0257,6.0271,6.0283,0,0,0,0,0,5.9251,5.9355,5.9351,5.938,5.953,5.9642,5.9662,5.9686,5.9651,5.9702,5.9742,5.973,5.9942,5.9891,5.9918,5.9982,6.0193,6.0203,6.0211,6.0252,6.0268,6.0283,0,0,0,0,0,0,5.9275,5.9366,5.9363,5.9497,5.9562,5.964,5.9705,5.9703,5.9778,5.9771,5.9796,5.9814,5.9932,5.9969,5.991,6.0113,6.0063,6.0078,6.0084,6.0101,6.0113,6.0102,5.9874,0,0,0,0,0,5.9297,5.9383,5.9456,5.9567,5.96,5.9647,5.9697,5.9711,5.9778,5.9805,5.9854,5.9918,5.9999,6.0052,6.013,6.0263,6.0279,6.032,6.0333,6.0343,6.0355,6.0428,6.0447,6.0246,6.0245,6.0245,0,0,5.9341,5.9401,5.9453,5.9573,5.9626,5.9712,5.9671,5.9763,5.9827,5.9818,5.9933,5.9971,6.0044,6.017,6.0227,6.0204,6.0415,6.0355,6.0362,6.0369,6.0439,6.0458,6.0475,6.0252,6.0251,6.025,0,0,5.9466,5.9521,5.9619,5.9673,5.9754,5.9785,5.9809,5.9888,5.9913,6.0029,6.0025,6.0099,6.0239,6.0292,6.0336,6.0482,6.0473,6.0507,6.0573,6.0643,6.0659,6.0673,6.0725,6.0743,6.0519,6.0519,6.0519,0,5.951,5.9643,5.967,5.9764,5.9817,5.9816,5.9915,5.9965,6.0066,6.0101,6.0074,6.025,6.0299,6.0437,6.0473,6.0509,6.0536,6.0498,6.0655,6.067,6.0683,6.0733,6.0752,6.0522,6.0522,6.0522,6.0521,0,5.9693,5.9784,5.9854,5.9955,6.0015,6.0111,6.0151,6.0208,6.0216,6.0249,6.0367,6.0426,6.0516,6.055,6.0558,6.0689,6.0672,6.065,6.06,6.0705,6.0752,6.0771,6.0527,6.0526,6.0525,6.0524,0,0,5.9837,5.9953,5.9978,6.0024,6.0114,6.0184,6.0279,6.037,6.0419,6.0488,6.0568,6.0687,6.0667,6.0718,6.0732,6.0794,6.0905,6.0764,6.0766,6.0788,6.1053,6.1069,6.109,6.09,6.0904,6.0907,6.1046,0,5.9971,6.0144,6.0171,6.0321,6.0406,6.0406,6.0489,6.0552,6.0585,6.066,6.0695,6.0779,6.0747,6.0778,6.0839,6.0879,6.0958,6.0869,6.0972,6.0976,6.0954,6.1115,6.1132,6.1261,6.1065,6.1068,6.107,0,6.0151,6.0228,6.0388,6.0467,6.0503,6.0578,6.0663,6.0735,6.0806,6.0825,6.0883,6.089,6.0986,6.0933,6.1066,6.1005,6.1048,6.1074,6.108,6.109,6.1029,6.1129,6.1303,6.1322,6.1099,6.1097,6.1095,0,6.024,6.0384,6.0498,6.0537,6.0632,6.0684,6.0726,6.0793,6.0846,6.092,6.0955,6.1038,6.1083,6.1146,6.1174,6.1133,6.1305,6.1254,6.1323,6.1322,6.1359,6.1356,6.1542,6.1388,6.1387,6.1387,6.1387,0,6.0387,6.0484,6.054,6.061,6.0719,6.0748,6.0854,6.0894,6.0954,6.103,6.1034,6.1105,6.1138,6.1214,6.1236,6.1342,6.1362,6.138,6.1384,6.138,6.1377,6.1408,6.14,6.1392,6.1391,6.139,6.1389,0,6.0505,6.0546,6.0671,6.0751,6.0773,6.085,6.0917,6.0984,6.1018,6.1114,6.1138,6.119,6.1279,6.1313,6.1421,6.1436,6.1559,6.1556,6.1536,6.1537,6.1604,6.1597,6.1816,6.1846,6.1672,6.1673,6.1675,0,6.0596,6.0671,6.076,6.0813,6.0857,6.0942,6.0997,6.1028,6.1085,6.1171,6.1227,6.1317,6.139,6.1532,6.1577,6.166,6.1659,6.173,6.1671,6.1664,6.166,6.1655,6.1662,6.1741,6.1742,6.1744,6.1745,0,6.0752,6.077,6.085,6.0939,6.1005,6.1075,6.1143,6.1185,6.1226,6.1289,6.1382,6.1439,6.1551,6.1639,6.1724,6.1764,6.1761,6.1763,6.1784,6.1779,6.1765,6.1773,6.1565,6.1758,6.1757,6.1756,6.1755,6.1754,6.086,6.0927,6.1001,6.109,6.1145,6.1209,6.1277,6.1319,6.1398,6.1493,6.1506,6.1605,6.1673,6.1788,6.1831,6.1907,6.1888,6.1918,6.1925,6.1932,6.1937,6.1753,6.1923,6.1922,6.1922,6.1922,6.1922,0,6.1017,6.1065,6.1147,6.1244,6.1314,6.1308,6.1383,6.1441,6.1529,6.1594,6.1667,6.1773,6.1859,6.1912,6.1998,6.2048,6.2049,6.207,6.2066,6.2075,6.1949,6.1923,6.2068,6.2068,6.2068,6.2068,6.2068,6.2068,6.1107,6.1221,6.1247,6.1387,6.1434,6.1533,6.1577,6.1635,6.1687,6.1806,6.1879,6.1913,6.1973,6.2063,6.2141,6.2154,6.2185,6.2207,6.2219,6.2099,6.2084,6.207,6.2046,6.2214,6.2214,6.2339,6.234,6.2341]}]]